Home   Weather   Shenzhen   Past weeks

Flag for China Past Weather in Shenzhen, Guangdong, China — Yesterday and Last 2 Weeks

Now
66 °F

Haze.


Feels Like: 66 °F
Forecast: 63 / 78 °F
Wind: 8 mph from Northeast

Location: Shenzhen Airport

Current Time: Dec 3, 2016 at 10:30:07 am

Latest Report: Dec 3, 2016 at 9:00 am


Visibility: 3 mi

Pressure: 30.24 "Hg

Humidity: 64%

Dew Point: 54 °F

Location of ShenzhenLocation

Past Weather in Shenzhen — Graph

°F

Shenzhen Temperature Yesterday

Maximum temperature yesterday: 75 °F (at 3:00 pm)
Minimum temperature yesterday: 61 °F (at 6:00 am)
Average temperature yesterday: 67 °F

High & Low Weather Summary for the Past Weeks

 TemperatureHumidityPressure
High86 °F (Nov 19, 1:00 pm)94% (Nov 22, 7:00 am)30.62 "Hg (Nov 22, 7:00 am)
Low52 °F (Nov 24, 6:00 am)40% (Nov 28, 4:00 pm)29.83 "Hg (Nov 20, 3:00 pm)
Average68 °F70%30.06 "Hg
* Reported Nov 18 9:00 am — Dec 3 9:00 am, Shenzhen, Weather by CustomWeather, © 2016

Note: Actual official high and low records may vary slightly from our data, if they occured in-between our weather recording intervals... More about our weather records

Advertising

Shenzhen Weather History for the Previous 24 Hours

Scroll right to see more
 ConditionsComfort  
Time TempWeatherWind HumidityBarometerVisibility
9:00 am
Sat, Dec 3
66 °FHaze.8 mph64%30.24 "Hg3 mi
8:00 am66 °FPartly sunny.6 mph64%30.24 "Hg4 mi
7:00 am64 °FPartly sunny.6 mph68%30.21 "Hg4 mi
6:00 am64 °FPassing clouds.6 mph68%30.18 "Hg4 mi
5:00 am64 °FPassing clouds.8 mph68%30.18 "Hg4 mi
4:00 am64 °FPassing clouds.8 mph68%30.18 "Hg4 mi
3:00 am66 °FPassing clouds.8 mph68%30.18 "Hg3 mi
2:00 am64 °FPassing clouds.6 mph78%30.15 "Hg3 mi
1:00 am64 °FFog.6 mph78%30.18 "Hg3 mi
12:00 am66 °FHaze.1 mph68%30.18 "Hg3 mi
11:00 pm
Fri, Dec 2
66 °FClear.6 mph68%30.18 "Hg4 mi
10:00 pm68 °FClear.3 mph64%30.18 "Hg4 mi
9:00 pm68 °FClear.6 mph64%30.18 "Hg4 mi
8:00 pm70 °FClear.6 mph60%30.18 "Hg4 mi
7:00 pm68 °FClear.6 mph64%30.18 "Hg4 mi
6:00 pm70 °FClear.8 mph60%30.15 "Hg4 mi
5:00 pm73 °FClear.8 mph53%30.15 "Hg5 mi
4:00 pm73 °FClear.8 mph53%30.12 "Hg4 mi
3:00 pm75 °FClear.8 mph50%30.15 "Hg4 mi
2:00 pm73 °FClear.8 mph50%30.15 "Hg4 mi
1:00 pm72 °FClear.8 mph53%30.18 "Hg5 mi
12:00 pm72 °FClear.10 mph50%30.21 "Hg5 mi
11:00 am68 °FClear.8 mph56%30.27 "Hg5 mi
10:00 am68 °FClear.10 mph53%30.27 "Hg5 mi
Weather by CustomWeather, © 2016

See weather overviewHow to use our weather pages